GW4413 Weather Reports


Display with metric or nautical units.
time (UTC)temp
F
wind
direction
speed
MPH
gust
MPH
rain 1hr
in
rain 24hr
in
rain mn
in
humidity
%
barometer
mb
20260505083511 52 305 0.0 0.0 0.00 0.00 0.00 84 1012.7
20260505083027 52 305 0.0 0.0 0.00 0.00 0.00 84 1012.8
20260505082507 52 305 0.0 0.0 0.00 0.00 0.00 84 1012.6
20260505082011 53 305 0.0 0.0 0.00 0.00 0.00 84 1012.7
20260505081527 53 305 0.0 0.0 0.00 0.00 0.00 84 1012.7
20260505081010 53 305 0.0 0.0 0.00 0.00 0.00 83 1012.7
20260505080510 53 305 0.0 0.0 0.00 0.00 0.00 83 1012.7
20260505080028 53 305 0.0 0.0 0.00 0.00 0.00 83 1012.6
20260505075509 53 305 0.0 0.0 0.00 0.00 0.00 82 1012.6
20260505075008 53 305 0.0 0.0 0.00 0.00 0.00 82 1012.6
20260505074528 53 305 0.0 0.0 0.00 0.00 0.00 82 1012.6
20260505074003 54 305 0.0 1.0 0.00 0.00 0.00 82 1012.5
20260505073504 54 305 0.0 1.0 0.00 0.00 0.00 82 1012.5
20260505073004 54 305 0.0 1.0 0.00 0.00 0.00 81 1012.5
20260505072503 54 305 0.0 1.0 0.00 0.00 0.00 81 1012.4
20260505072005 54 305 0.0 1.0 0.00 0.00 0.00 81 1012.3
20260505070503 55 305 0.0 1.0 0.00 0.00 0.00 80 1012.2
20260505065504 55 305 0.0 0.0 0.00 0.00 0.00 79 1012.1
20260505065003 55 305 0.0 1.0 0.00 0.00 0.00 79 1012.1
20260505064504 55 305 0.0 1.0 0.00 0.00 0.00 79 1012.0
20260505064009 55 305 0.0 1.0 0.00 0.00 0.00 78 1012.0
20260505063503 56 305 0.0 1.0 0.00 0.00 0.00 78 1012.0
20260505063003 56 305 0.0 1.0 0.00 0.00 0.00 78 1011.9
20260505062503 56 305 0.0 1.0 0.00 0.00 0.00 78 1011.9
20260505062003 56 305 0.0 1.0 0.00 0.00 0.00 78 1011.9
20260505061510 56 305 0.0 0.0 0.00 0.00 0.00 77 1011.9
20260505061003 56 305 0.0 0.0 0.00 0.00 0.00 77 1011.7
20260505060505 56 305 0.0 0.0 0.00 0.00 0.00 77 1011.7
20260505055503 57 305 0.0 0.0 0.00 0.00 0.00 76 1011.6
20260505055003 57 305 0.0 1.0 0.00 0.00 0.00 76 1011.5
20260505054002 57 305 0.0 1.0 0.00 0.00 0.00 76 1011.3
20260505053503 57 305 0.0 1.0 0.00 0.00 0.00 76 1011.3
20260505053006 57 305 0.0 0.0 0.00 0.00 0.00 75 1011.2
20260505052503 57 305 0.0 1.0 0.00 0.00 0.00 75 1011.1
20260505052004 58 305 0.0 1.0 0.00 0.00 0.00 74 1011.1
20260505051514 58 305 0.0 0.0 0.00 0.00 0.00 74 1011.1
20260505051004 58 305 0.0 1.0 0.00 0.00 0.00 74 1011.0
20260505050506 58 305 0.0 1.0 0.00 0.00 0.00 74 1011.0
20260505041508 60 305 0.0 1.0 0.00 0.00 0.00 71 1010.7
20260505041004 60 305 0.0 1.0 0.00 0.00 0.00 71 1010.6
20260505040505 60 305 0.0 1.0 0.00 0.00 0.00 70 1010.6
20260505040009 60 305 0.0 1.0 0.00 0.00 0.00 69 1010.5
20260505035506 60 305 0.0 0.0 0.00 0.00 0.00 69 1010.4
20260505035003 60 305 0.0 0.0 0.00 0.00 0.00 68 1010.4
20260505034514 61 305 0.0 0.0 0.00 0.00 0.00 68 1010.3
20260505034003 61 305 0.0 0.0 0.00 0.00 0.00 67 1010.2
20260505032502 62 305 0.0 0.0 0.00 0.00 0.00 65 1009.9
20260505032003 62 305 0.0 0.0 0.00 0.00 0.00 65 1009.9
20260505031003 63 305 0.0 1.0 0.00 0.00 0.00 64 1009.7
20260505030503 63 305 0.0 1.0 0.00 0.00 0.00 63 1009.7
20260505030012 63 305 0.0 1.0 0.00 0.00 0.00 63 1009.6
20260505025503 64 305 0.0 1.0 0.00 0.00 0.00 63 1009.6
20260505025005 64 305 0.0 0.0 0.00 0.00 0.00 62 1009.6
20260505024512 64 305 0.0 0.0 0.00 0.00 0.00 62 1009.6
20260505024002 65 306 0.0 0.0 0.00 0.00 0.00 61 1009.6
20260505023503 65 305 0.0 0.0 0.00 0.00 0.00 61 1009.6
20260505023009 65 305 0.0 0.0 0.00 0.00 0.00 60 1009.7
20260505021003 66 305 0.0 1.0 0.00 0.00 0.00 59 1009.7
20260505020502 66 306 0.0 1.0 0.00 0.00 0.00 59 1009.7
20260505015507 66 306 0.0 1.0 0.00 0.00 0.00 60 1009.8
20260505015004 66 305 0.0 1.0 0.00 0.00 0.00 59 1009.8
20260505014513 66 305 0.0 1.0 0.00 0.00 0.00 58 1009.9
20260505014005 66 305 0.0 1.0 0.00 0.00 0.00 58 1010.0
20260505013503 67 305 0.0 2.0 0.00 0.00 0.00 57 1009.9
20260505013013 67 305 0.0 2.0 0.00 0.00 0.00 56 1009.9
20260505012505 67 305 0.0 2.0 0.00 0.00 0.00 56 1010.0
20260505012007 67 306 0.0 1.0 0.00 0.00 0.00 56 1010.1
20260505011513 68 306 0.0 1.0 0.00 0.00 0.00 56 1010.1
20260505005006 69 53 0.0 2.0 0.00 0.00 0.00 54 1010.4
20260505004513 69 53 0.0 2.0 0.00 0.00 0.00 54 1010.4
20260505004006 69 53 0.0 2.0 0.00 0.00 0.00 53 1010.4
20260505003503 70 53 0.0 2.0 0.00 0.00 0.00 53 1010.5
20260505003012 70 40 0.0 1.0 0.00 0.00 0.00 52 1010.5
20260505002504 70 143 0.0 2.0 0.00 0.00 0.00 52 1010.5
20260505002007 70 143 0.0 2.0 0.00 0.00 0.00 52 1010.6
20260505001516 70 143 0.0 1.0 0.00 0.00 0.00 52 1010.5
20260505001007 70 143 0.0 2.0 0.00 0.00 0.00 50 1010.5
20260505000510 70 143 0.0 2.0 0.00 0.00 0.00 49 1010.4
20260505000015 70 285 0.0 3.0 0.00 0.00 0.00 49 1010.4
20260504235508 70 285 0.0 3.0 0.00 0.00 0.00 48 1010.4
20260504234005 71 285 0.0 2.0 0.00 0.00 0.00 49 1010.4
20260504233504 71 285 0.0 2.0 0.00 0.00 0.00 48 1010.4
20260504233018 71 285 0.0 2.0 0.00 0.00 0.00 49 1010.3
20260504232508 71 285 0.0 2.0 0.00 0.00 0.00 48 1010.3
20260504232007 72 285 0.0 1.0 0.00 0.00 0.00 47 1010.3
20260504231516 72 285 0.0 1.0 0.00 0.00 0.00 47 1010.4
20260504231009 73 285 0.0 2.0 0.00 0.00 0.00 47 1010.4
20260504230509 73 285 0.0 2.0 0.00 0.00 0.00 46 1010.4
20260504230018 73 285 0.0 2.0 0.00 0.00 0.00 44 1010.4
20260504225505 73 285 0.0 2.0 0.00 0.00 0.00 44 1010.4
20260504225006 73 285 1.0 2.0 0.00 0.00 0.00 43 1010.5
20260504224517 74 285 0.0 2.0 0.00 0.00 0.00 42 1010.5
20260504224010 74 285 0.0 2.0 0.00 0.00 0.00 46 1010.6
20260504223507 74 285 0.0 2.0 0.00 0.00 0.00 45 1010.6
20260504223015 74 285 1.0 2.0 0.00 0.00 0.00 43 1010.5
20260504222509 74 285 0.0 2.0 0.00 0.00 0.00 41 1010.7
20260504222007 74 285 0.0 2.0 0.00 0.00 0.00 43 1010.7
20260504221513 74 285 0.0 2.0 0.00 0.00 0.00 44 1010.7
20260504221008 74 219 0.0 2.0 0.00 0.00 0.00 40 1010.7
20260504220506 74 219 0.0 2.0 0.00 0.00 0.00 44 1010.7
20260504220012 73 271 0.0 3.0 0.00 0.00 0.00 42 1010.8
20260504215506 73 271 1.0 3.0 0.00 0.00 0.00 43 1010.7
20260504215008 73 317 0.0 2.0 0.00 0.00 0.00 45 1010.7
20260504214513 73 317 0.0 2.0 0.00 0.00 0.00 43 1010.9
20260504214006 73 317 0.0 2.0 0.00 0.00 0.00 46 1010.9
20260504213505 73 317 0.0 2.0 0.00 0.00 0.00 47 1011.0
20260504212007 73 352 0.0 2.0 0.00 0.00 0.00 45 1011.0
20260504211514 73 352 0.0 2.0 0.00 0.00 0.00 44 1011.1
20260504210507 73 352 0.0 3.0 0.00 0.00 0.00 43 1011.1
20260504210019 73 304 1.0 3.0 0.00 0.00 0.00 45 1011.1
20260504205508 73 23 0.0 2.0 0.00 0.00 0.00 47 1011.2
20260504205008 73 33 0.0 2.0 0.00 0.00 0.00 45 1011.1
20260504204513 73 20 1.0 2.0 0.00 0.00 0.00 47 1011.1
20260504204010 73 20 0.0 2.0 0.00 0.00 0.00 48 1011.1
20260504203509 72 20 0.0 2.0 0.00 0.00 0.00 45 1011.1
20260504202506 71 20 1.0 3.0 0.00 0.00 0.00 47 1011.1
20260504201513 70 42 0.0 2.0 0.00 0.00 0.00 50 1011.1
20260504200015 69 42 0.0 2.0 0.00 0.00 0.00 54 1011.2
20260504195507 69 42 0.0 2.0 0.00 0.00 0.00 52 1011.2
20260504195006 68 17 0.0 2.0 0.00 0.00 0.00 54 1011.2
20260504194516 68 17 0.0 2.0 0.00 0.00 0.00 52 1011.3
20260504194003 68 17 0.0 2.0 0.00 0.00 0.00 52 1011.2
20260504193503 68 17 0.0 2.0 0.00 0.00 0.00 52 1011.3
20260504192502 68 63 0.0 2.0 0.00 0.00 0.00 53 1011.3
20260504192002 68 63 0.0 3.0 0.00 0.00 0.00 53 1011.4
20260504191003 69 58 1.0 4.0 0.00 0.00 0.00 50 1011.4
20260504190502 70 65 1.0 4.0 0.00 0.00 0.00 48 1011.4
20260504190018 70 59 1.0 4.0 0.00 0.00 0.00 47 1011.3
20260504185504 70 23 0.0 2.0 0.00 0.00 0.00 49 1011.3
20260504185003 70 23 0.0 2.0 0.00 0.00 0.00 48 1011.3
20260504184520 69 23 0.0 2.0 0.00 0.00 0.00 49 1011.3
20260504184008 69 344 0.0 1.0 0.00 0.00 0.00 50 1011.3
20260504183509 69 344 0.0 1.0 0.00 0.00 0.00 50 1011.4
20260504183014 69 43 0.0 2.0 0.00 0.00 0.00 50 1011.5
20260504182503 68 43 0.0 3.0 0.00 0.00 0.00 51 1011.5
20260504182008 68 26 0.0 3.0 0.00 0.00 0.00 52 1011.5
20260504181515 68 69 0.0 1.0 0.00 0.00 0.00 52 1011.6
20260504181004 67 69 0.0 2.0 0.00 0.00 0.00 51 1011.6
20260504180014 67 54 0.0 2.0 0.00 0.00 0.00 53 1011.5
20260504175504 67 54 0.0 2.0 0.00 0.00 0.00 52 1011.5
20260504174516 67 343 0.0 2.0 0.00 0.00 0.00 56 1011.4
20260504174003 67 296 0.0 1.0 0.00 0.00 0.00 57 1011.3
20260504173507 67 296 0.0 2.0 0.00 0.00 0.00 56 1011.3
20260504173017 67 296 0.0 2.0 0.00 0.00 0.00 57 1011.4
20260504172503 66 20 0.0 2.0 0.00 0.00 0.00 57 1011.3
20260504172006 66 306 0.0 2.0 0.00 0.00 0.00 56 1011.3
20260504171004 65 20 0.0 1.0 0.00 0.00 0.00 60 1011.3
20260504170507 65 20 0.0 1.0 0.00 0.00 0.00 59 1011.4
20260504151005 58 300 0.0 1.0 0.00 0.00 0.00 69 1011.0
20260504150510 58 300 0.0 1.0 0.00 0.00 0.00 71 1010.9
20260504141010 55 300 0.0 1.0 0.00 0.00 0.00 70 1010.4
20260504140508 54 300 0.0 1.0 0.00 0.00 0.00 69 1010.4
20260504130507 54 300 0.0 0.0 0.00 0.00 0.00 70 1010.2
20260504110507 56 300 0.0 0.0 0.00 0.00 0.00 67 1010.2
20260504100510 57 300 0.0 0.0 0.00 0.00 0.00 65 1010.1